Долгий Мост

Россия / Красноярский край     56°44′50″N   96°48′09″E
темп.,
°C
ветер,
м/с
пор.,
м/с
влажн.,
%
обл.,
%
осадки,
мм/ч
давл.,
гПа
погр.,
м
14 мая, пт
пт1401:00+3ююв210592 0.0 1017188
04:00+2юв276356 0.0 1015118
07:00+6ююв364843 0.0 1014207
10:00+13ю353379 0.0 1011698
13:00+18юз46266 0.0 10091546
16:00+10зсз91471100 0.1 1010743
19:00+7зсз4989100 2.0 1012997
22:00+4зсз511805 0.1 1016806
15 мая, сб
сб1501:00+2зюз4128499 0.1 1017459
04:00+2зюз41084100 0.1 1017336
07:00+5зюз51167100 0.1 10161316
10:00+8зюз61457100 0.3 10141543
13:00+8зюз71673100 0.8 10121231
16:00+13зюз61660100 0.0 10101854
19:00+13з71465100 0.1 10101417
22:00+10зюз41283100 0.9 1011635
16 мая, вс
вс1601:00+9сз2698100 6.3 1011380
04:00+5ссв2592100 0.6 1013336
07:00+5с2476100 0.8 1015399
10:00+8сз2362100 0.0 1015770
13:00+11сз2347100 0.0 10131176
16:00+10ссв2249100 0.1 10111169
19:00+5всв2485100 1.6 1010327
22:00+5с1286100 0.0 101183
17 мая, пн
пн1701:00+2зсз22905 0.0 101337
04:000сз22865 0.0 101416
07:00+4ссз13655 0.0 1014216
10:00+9зсз34465 0.0 10141425
13:00+12зсз353663 0.0 10132200
16:00+12зсз463242 0.0 10122313
19:00+10сз364145 0.0 1012608
22:00+5зсз2961100 0.0 1014171
18 мая, вт
вт1801:00+3з2462100 0.0 101376
04:00+3з2458100 0.0 101282
07:00+7зсз1145100 0.0 1011166
10:00+7ююв2355100 0.1 10091175
13:00+4вюв3695100 1.8 1007535
16:00+4всв3697100 1.1 1005400
19:00+4св2497100 1.3 1006350
22:00+3зюз11955 0.0 100610